Location: Krakow
(50.0830°N, 19.9170°E)
Time: 10:04:41
(UTC+01:00)

Transit 2A - Pass Details

Date: 11 February 2023
Orbit: 591 x 964 km, 66.7° (Epoch: 21 March)

Event Time Altitude Azimuth Distance (km) Brightness Sun altitude
Rises 17:58:50 0° 282° (WNW) 3,215 10.7 -11.3°
Reaches altitude 10° 18:01:57 10° 302° (WNW) 2,367 9.3 -11.8°
Maximum altitude 18:05:37 18° 344° (NNW) 1,957 8.2 -12.4°
Drops below altitude 10° 18:09:31 10° 26° (NNE) 2,538 8.4 -13.0°
Enters shadow 18:11:10 - 36° (NE) 2,983 8.7 -13.3°
Sets 18:13:01 0° 45° (NE) 3,543 - -13.6°
